DW2959 Murcia ES current weather conditions

sailwx.info

Wind from 094

Air temperature 16.7° C
Dewpoint 9.3° C

Last reported at 2017-Apr-23 19:07 UTC.
Time now 2017-Apr-23 19:45 UTC

Location: N 38°00' W 001°02'.
View on Google Maps.

See reports from other nearby stations

  
Tides and Currents Weather Stations Pressure Air Temp Water Temp Dewpoint Dewpoint Depression Visibility Wind Speed Wind Dir Waves Ship Positions
date/time (UTC)wind fromknots sea level pressurealtimeterstation pressurevisibilityair tempwater tempwave heightnotes
2017-Apr-23 19:07 094 16.7
2017-Apr-23 18:52 084 1 gusting 6 16.7
2017-Apr-23 18:37 092 16.7
2017-Apr-23 18:21 107 2 gusting 6 17.2
2017-Apr-23 18:09 090 2 gusting 6 17.2
2017-Apr-23 17:51 077 1 gusting 6 17.8
2017-Apr-23 17:37 055 2 gusting 6 17.8
2017-Apr-23 17:21 062 1 gusting 9 18.3
2017-Apr-23 17:06 059 1 gusting 8 18.3
2017-Apr-23 16:51 076 3 gusting 10 18.9
2017-Apr-23 16:36 088 5 gusting 11 19.4
2017-Apr-23 16:20 090 3 gusting 10 20.0
2017-Apr-23 16:06 058 3 gusting 9 20.0
2017-Apr-23 15:51 071 3 gusting 12 20.6
2017-Apr-23 15:35 105 3 gusting 10 21.1
2017-Apr-23 15:20 105 5 gusting 11 21.7
2017-Apr-23 15:05 074 4 gusting 11 22.2
2017-Apr-23 14:51 084 2 gusting 10 22.2
2017-Apr-23 14:36 090 3 gusting 9 22.8
2017-Apr-23 14:21 089 3 gusting 9 22.8
2017-Apr-23 14:06 096 2 gusting 10 22.8
2017-Apr-23 13:50 084 2 gusting 12 22.2
2017-Apr-23 13:36 054 2 gusting 11 22.2
2017-Apr-23 13:21 101 4 gusting 8 22.2
2017-Apr-23 13:05 044 4 gusting 11 22.2
2017-Apr-23 12:50 105 2 gusting 11 22.2
2017-Apr-23 12:35 080 2 gusting 8 22.2
2017-Apr-23 12:20 083 3 gusting 8 21.7
2017-Apr-23 12:05 069 1 gusting 7 21.1
2017-Apr-23 11:51 068 2 gusting 7 21.1
2017-Apr-23 11:36 107 1 gusting 6 20.6
2017-Apr-23 11:21 088 1 gusting 7 20.6
2017-Apr-23 11:06 140 0 gusting 6 20.0
2017-Apr-23 10:51 067 19.4
2017-Apr-23 10:35 086 19.4
2017-Apr-23 10:20 082 0 gusting 5 18.3
2017-Apr-23 10:05 040 1 gusting 5 18.3
2017-Apr-23 09:48 022 2 gusting 6 17.8
2017-Apr-23 09:36 057 0 gusting 2 17.8
2017-Apr-23 09:17 063 16.7
2017-Apr-23 09:05 257 16.1
2017-Apr-23 08:48 254 15.6
2017-Apr-23 08:32 253 15.0
2017-Apr-23 08:18 251 1 gusting 3 14.4
2017-Apr-23 08:02 264 13.3
2017-Apr-23 07:47 262 1 gusting 5 13.3
2017-Apr-23 07:32 236 0 gusting 4 12.8
2017-Apr-23 07:16 216 1 gusting 5 12.2
2017-Apr-23 07:02 230 0 gusting 6 11.7
2017-Apr-23 06:47 218 11.7
2017-Apr-23 06:31 230 11.1
2017-Apr-23 06:17 244 10.6
2017-Apr-23 06:01 261 10.0
2017-Apr-23 05:46 261 10.0
2017-Apr-23 05:31 261 10.0
2017-Apr-23 05:16 261 10.0
2017-Apr-23 05:01 261 10.6
2017-Apr-23 04:46 261 10.6
2017-Apr-23 04:31 261 10.6
2017-Apr-23 04:15 261 10.6
2017-Apr-23 04:01 260 11.1
2017-Apr-23 03:45 259 11.1
2017-Apr-23 03:31 259 11.1
2017-Apr-23 03:15 260 11.1
2017-Apr-23 03:00 255 11.1
2017-Apr-23 02:45 239 11.1
2017-Apr-23 02:30 214 0 gusting 3 11.1
2017-Apr-23 02:15 096 11.1
2017-Apr-23 02:00 095 11.1
2017-Apr-23 01:45 094 11.1
2017-Apr-23 01:29 094 11.1
2017-Apr-23 01:15 094 11.1
2017-Apr-23 01:00 093 11.1
2017-Apr-23 00:44 092 11.1
2017-Apr-23 00:29 091 10.6
2017-Apr-23 00:16 090 10.6
2017-Apr-22 23:59 091 10.0
2017-Apr-22 23:43 090 10.6
2017-Apr-22 23:29 090 10.6
2017-Apr-22 23:14 090 11.1
2017-Apr-22 22:59 090 11.7
2017-Apr-22 22:44 090 11.7
2017-Apr-22 22:28 090 11.7
2017-Apr-22 22:14 090 12.2
2017-Apr-22 21:58 090 12.8
2017-Apr-22 21:43 090 12.8
2017-Apr-22 21:28 090 12.8
2017-Apr-22 21:13 090 12.8
2017-Apr-22 20:58 090 13.3
2017-Apr-22 20:43 090 13.3
2017-Apr-22 20:28 090 13.9
2017-Apr-22 20:13 090 13.9
2017-Apr-22 19:58 090 14.4
2017-Apr-22 19:42 090 14.4
2017-Apr-22 19:27 091 15.0
2017-Apr-22 19:13 094 15.0
2017-Apr-22 18:57 095 1 gusting 7 15.6
2017-Apr-22 18:42 085 0 gusting 8 16.1
2017-Apr-22 18:27 087 1 gusting 7 16.1
2017-Apr-22 18:12 083 0 gusting 8 16.7
2017-Apr-22 17:59 091 1 gusting 8 16.7
2017-Apr-22 17:42 095 3 gusting 7 17.2
2017-Apr-22 17:27 086 3 gusting 7 17.8
2017-Apr-22 17:12 078 2 gusting 11 17.8
2017-Apr-22 16:57 038 6 gusting 12 17.8
2017-Apr-22 16:41 041 6 gusting 12 18.3
2017-Apr-22 16:26 063 3 gusting 8 18.3
2017-Apr-22 16:11 101 1 gusting 7 17.8
2017-Apr-22 15:57 099 2 gusting 8 18.3
2017-Apr-22 15:41 049 3 gusting 10 18.3
2017-Apr-22 15:26 077 1 gusting 8 17.8
2017-Apr-22 15:11 101 3 gusting 8 18.3
2017-Apr-22 14:55 105 1 gusting 9 17.8
2017-Apr-22 14:41 097 4 gusting 10 17.8
2017-Apr-22 14:26 092 3 gusting 12 17.8
2017-Apr-22 14:10 074 6 gusting 11 17.8
2017-Apr-22 13:55 103 5 gusting 9 17.8
2017-Apr-22 13:40 096 3 gusting 11 17.8
2017-Apr-22 13:25 082 2 gusting 11 18.3
2017-Apr-22 13:10 041 3 gusting 11 18.9
2017-Apr-22 12:55 072 1 gusting 8 17.8
2017-Apr-22 12:40 078 2 gusting 12 18.3
2017-Apr-22 12:25 104 4 gusting 11 17.8
2017-Apr-22 12:10 029 8 gusting 13 18.3
2017-Apr-22 11:55 054 6 gusting 13 18.3
2017-Apr-22 11:41 077 4 gusting 11 18.3
2017-Apr-22 11:24 090 4 gusting 11 17.8
2017-Apr-22 11:09 095 3 gusting 10 17.2
2017-Apr-22 10:54 054 3 gusting 11 17.8
2017-Apr-22 10:39 031 3 gusting 10 17.8
2017-Apr-22 10:24 072 6 gusting 12 17.2
2017-Apr-22 10:09 038 8 gusting 14 17.8
2017-Apr-22 09:54 044 5 gusting 13 17.2
2017-Apr-22 09:38 050 3 gusting 12 16.7
2017-Apr-22 09:24 027 9 gusting 14 16.7
2017-Apr-22 09:08 083 5 gusting 10 16.7
2017-Apr-22 08:53 100 1 gusting 15 16.1
2017-Apr-22 08:38 088 4 gusting 16 15.6
2017-Apr-22 08:23 036 3 gusting 13 15.6
2017-Apr-22 08:08 058 6 gusting 11 14.4
2017-Apr-22 07:53 268 13.9
2017-Apr-22 07:38 266 13.3
2017-Apr-22 07:23 266 0 gusting 3 12.8
2017-Apr-22 07:07 263 12.8
2017-Apr-22 06:53 263 12.2
2017-Apr-22 06:22 242 0 gusting 4 11.7
2017-Apr-22 06:07 196 11.1
2017-Apr-22 05:52 168 0 gusting 4 11.1
2017-Apr-22 05:37 167 11.1
2017-Apr-22 05:24 167 11.1
2017-Apr-22 05:07 167 11.1
2017-Apr-22 04:52 167 11.1
2017-Apr-22 04:37 082 10.6
2017-Apr-22 04:22 075 10.6
2017-Apr-22 04:06 075 10.6
2017-Apr-22 03:51 075 10.6
2017-Apr-22 03:36 074 10.0
2017-Apr-22 03:21 073 10.0
2017-Apr-22 03:06 073 10.0
2017-Apr-22 02:51 073 10.0
2017-Apr-22 02:36 073 10.0
2017-Apr-22 02:20 073 10.0
2017-Apr-22 02:06 073 10.0
2017-Apr-22 01:51 073 10.0
2017-Apr-22 01:36 073 10.6
2017-Apr-22 01:21 074 11.1
2017-Apr-22 01:06 073 11.1
2017-Apr-22 00:50 073 11.1
2017-Apr-22 00:36 073 11.1
2017-Apr-22 00:21 073 11.1
2017-Apr-22 00:06 073 10.6
2017-Apr-21 23:50 073 11.1
2017-Apr-21 23:36 073 11.1
2017-Apr-21 23:20 073 11.7
2017-Apr-21 23:06 073 12.2
2017-Apr-21 22:51 073 12.2
2017-Apr-21 22:36 073 12.2
2017-Apr-21 22:21 076 12.2
2017-Apr-21 22:05 076 12.8
2017-Apr-21 21:50 076 12.8
2017-Apr-21 21:36 076 12.8
2017-Apr-21 21:21 076 12.8
2017-Apr-21 21:06 076 13.3
2017-Apr-21 20:50 076 13.3
2017-Apr-21 20:35 076 13.9
2017-Apr-21 20:20 076 13.9
2017-Apr-21 20:04 076 13.9
2017-Apr-21 19:48 069 14.4
2017-Apr-21 19:34 074 1 gusting 6 14.4
2017-Apr-21 19:18 088 2 gusting 6 14.4
2017-Apr-21 19:03 089 4 gusting 11 15.0